Blountville, TN

11:10 PM EST on December 04, 2016 (GMT -0500)
Tri-Cities Regional Tennessee / Virginia

Weather History for KTRI - September, 2011

Change the Weather History Date:

Friday, September 23, 2011

  Actual Average Record
Temperature  
Mean Temperature 70 °F 64 °F  
Max Temperature 79 °F 77 °F 94 °F (1955)
Min Temperature 61 °F 52 °F 35 °F (1999)
Degree Days  
Heating Degree Days 0 3  
Month to date heating degree days 11 23  
Since 1 July heating degree days 11 24  
Cooling Degree Days 5 2  
Month to date cooling degree days 114 104  
Year to date cooling degree days 1309 956  
Growing Degree Days 18 (Base 50)    
Moisture  
Dew Point 61 °F    
Average Humidity 79    
Maximum Humidity 93    
Minimum Humidity 64    
Precipitation  
Precipitation 0.24 in 0.10 in 0.81 in (1975)
Month to date precipitation 3.04 2.37  
Year to date precipitation 36.04 31.82  
Snow  
Snow 0.00 in 0.00 in - ()
Month to date snowfall 0.0 0.0  
Since 1 July snowfall 0.0 0.0  
Since 1 September snowfall 0.0 0.0  
Snow Depth 0.00 in    
Sea Level Pressure  
Sea Level Pressure 29.96 in    
Wind  
Wind Speed 5 mph (West)    
Max Wind Speed 21 mph    
Max Gust Speed 28 mph    
Visibility 9 miles    
Events Rain    
T = Trace of Precipitation, MM = Missing Value Source: NWS Daily Summary

Daily Weather History Graph

Daily Weather History Graph

Search for Another Location

Airport or City:

Trip Planner

Search our weather history database for the weather conditions in past years. The results will help you decide how hot, cold, wet, or windy it might be!

Date:

Astronomy

Sep. 23, 2011 Rise Set
Actual Time 7:18 AM EDT 7:25 PM EDT
Civil Twilight 6:52 AM EDT 7:51 PM EDT
Nautical Twilight 6:22 AM EDT 8:21 PM EDT
Astronomical Twilight 5:51 AM EDT 8:51 PM EDT
Moon 2:50 AM EDT (9/23) 4:49 PM EDT (9/23)
Length of Visible Light 12h 58m
Length of Day
12h 07m
Waning Crescent, 19% of the Moon is Illuminated
Sep 23
Waning Crescent
Sep 27
New
Oct 3
First Quarter
Oct 11
Full
Oct 19
Last Quarter

Hourly Weather History & Observations

Time (EDT) Temp. Dew Point Humidity Pressure Visibility Wind Dir Wind Speed Gust Speed Precip Events Conditions
12:53 AM 66.0 °F 63.0 °F 90% 30.01 in 7.0 mi Calm Calm - N/A   Scattered Clouds
1:53 AM 66.9 °F 64.0 °F 90% 29.99 in 10.0 mi Calm Calm - N/A   Overcast
2:53 AM 66.9 °F 64.0 °F 90% 29.98 in 9.0 mi Calm Calm - N/A   Overcast
3:53 AM 66.9 °F 64.0 °F 90% 29.96 in 9.0 mi Calm Calm - 0.00 in Rain Light Rain
4:53 AM 68.0 °F 64.0 °F 87% 29.96 in 6.0 mi Calm Calm - 0.03 in Rain Light Rain
5:53 AM 66.0 °F 64.0 °F 93% 29.96 in 9.0 mi East 3.5 mph - 0.02 in Rain Light Rain
6:53 AM 66.9 °F 63.0 °F 87% 29.96 in 10.0 mi ESE 4.6 mph - 0.02 in Rain Light Rain
7:53 AM 66.0 °F 62.1 °F 87% 29.94 in 10.0 mi Calm Calm - 0.02 in Rain Light Rain
8:53 AM 66.0 °F 63.0 °F 90% 29.94 in 10.0 mi Calm Calm - 0.01 in   Overcast
9:53 AM 68.0 °F 63.0 °F 84% 29.95 in 10.0 mi WSW 5.8 mph - N/A   Overcast
10:53 AM 70.0 °F 63.0 °F 78% 29.97 in 10.0 mi Calm Calm - N/A   Mostly Cloudy
11:53 AM 72.0 °F 64.0 °F 76% 29.97 in 10.0 mi WSW 6.9 mph - N/A   Mostly Cloudy
12:53 PM 73.9 °F 63.0 °F 68% 29.95 in 10.0 mi SW 8.1 mph - N/A   Scattered Clouds
1:53 PM 75.9 °F 62.1 °F 62% 29.91 in 10.0 mi WSW 12.7 mph - N/A   Scattered Clouds
2:53 PM 75.0 °F 61.0 °F 62% 29.91 in 10.0 mi WSW 16.1 mph - 0.00 in Rain Light Rain
3:36 PM 69.8 °F 62.6 °F 78% 29.97 in 2.0 mi West 9.2 mph 24.2 mph 0.09 in Rain Rain
3:53 PM 70.0 °F 63.0 °F 78% 29.91 in 5.0 mi West 9.2 mph - 0.14 in Rain Light Rain
4:53 PM 72.0 °F 63.0 °F 73% 29.91 in 10.0 mi SSW 8.1 mph - 0.00 in   Mostly Cloudy
5:53 PM 71.1 °F 61.0 °F 70% 29.92 in 10.0 mi WNW 10.4 mph - N/A   Mostly Cloudy
6:53 PM 68.0 °F 57.9 °F 70% 29.94 in 10.0 mi WNW 8.1 mph - N/A   Scattered Clouds
7:53 PM 64.9 °F 57.0 °F 75% 29.95 in 10.0 mi NW 6.9 mph - N/A   Scattered Clouds
8:53 PM 64.9 °F 55.9 °F 73% 29.97 in 10.0 mi NW 6.9 mph - N/A   Overcast
9:17 PM 64.4 °F 55.4 °F 73% 30.03 in 10.0 mi WNW 6.9 mph - N/A   Overcast
9:53 PM 63.0 °F 55.9 °F 78% 29.99 in 10.0 mi WNW 8.1 mph - N/A   Overcast
10:53 PM 62.1 °F 55.0 °F 78% 30.00 in 10.0 mi West 5.8 mph - N/A   Overcast
11:53 PM 62.1 °F 55.0 °F 78% 30.00 in 10.0 mi NW 4.6 mph - N/A   Overcast